Weather History for KDVT - November, 2011

Change the Weather History Date:

Saturday, November 5, 2011

  Actual Average Record
Temperature  
Mean Temperature 52 °F -  
Max Temperature 57 °F 73 °F 90 °F (2007)
Min Temperature 46 °F 53 °F 46 °F (2002)
Degree Days  
Heating Degree Days 14    
Growing Degree Days 2 (Base 50)    
Moisture  
Dew Point 42 °F    
Average Humidity 70    
Maximum Humidity 94    
Minimum Humidity 41    
Precipitation  
Precipitation 0.54 in - - ()
Sea Level Pressure  
Sea Level Pressure 29.85 in    
Wind  
Wind Speed 11 mph (SW)    
Max Wind Speed 26 mph    
Max Gust Speed 39 mph    
Visibility 9 miles    
Events Rain    
Averages and records for this station are not official NWS values.
T = Trace of Precipitation, MM = Missing Value Source: NWS Daily Summary

Daily Weather History Graph

Daily Weather History Graph

Search for Another Location

Airport or City:

Trip Planner

Search our weather history database for the weather conditions in past years. The results will help you decide how hot, cold, wet, or windy it might be!

Date:

Astronomy

Nov. 05, 2011 Rise Set
Actual Time 6:50 AM MST 5:32 PM MST
Civil Twilight 6:24 AM MST 5:58 PM MST
Nautical Twilight 5:55 AM MST 6:28 PM MST
Astronomical Twilight 5:25 AM MST 6:57 PM MST
Moon 2:41 PM MST (11/5) 2:16 AM MST (11/5)
Length of Visible Light 11h 33m
Length of Day
10h 41m
Waxing Gibbous, 79% of the Moon is Illuminated
Nov 5
Waxing Gibbous
Nov 10
Full
Nov 18
Last Quarter
Nov 24
New
Dec 2
First Quarter

Hourly Weather History & Observations

Time (MST) Temp. Windchill Dew Point Humidity Pressure Visibility Wind Dir Wind Speed Gust Speed Precip Events Conditions
12:37 AM 51.8 °F - 50.0 °F 94% 29.62 in 3.0 mi SSW 11.5 mph - 0.18 in Rain Heavy Rain
12:49 AM 51.8 °F - 50.0 °F 94% 29.65 in 2.5 mi SW 13.8 mph 19.6 mph 0.26 in Rain Heavy Rain
12:53 AM 52.0 °F - 50.0 °F 93% 29.61 in 1.5 mi WSW 15.0 mph - 0.38 in Rain Heavy Rain
1:06 AM 51.8 °F - 46.4 °F 82% 29.64 in 3.0 mi WSW 26.5 mph 39.1 mph 0.13 in Rain Light Rain
1:53 AM 50.0 °F - 44.1 °F 80% 29.64 in 10.0 mi SW 15.0 mph 24.2 mph 0.13 in   Overcast
2:53 AM 48.9 °F - 44.1 °F 83% 29.70 in 10.0 mi SSW 16.1 mph 24.2 mph N/A   Overcast
3:53 AM 48.9 °F - 44.1 °F 83% 29.72 in 10.0 mi SW 13.8 mph 20.7 mph N/A   Overcast
5:29 AM 48.2 °F - 42.8 °F 82% 29.82 in 10.0 mi SSW 10.4 mph - 0.00 in Rain Light Rain
6:21 AM 46.4 °F 40.7 °F 42.8 °F 87% 29.84 in 6.0 mi SW 12.7 mph - 0.01 in Rain Light Rain
6:53 AM 46.9 °F - 42.1 °F 83% 29.83 in 10.0 mi SW 10.4 mph - 0.03 in   Mostly Cloudy
7:53 AM 46.9 °F - 41.0 °F 80% 29.88 in 10.0 mi SSW 6.9 mph - N/A   Scattered Clouds
8:53 AM 48.9 °F - 42.1 °F 77% 29.92 in 10.0 mi SW 11.5 mph - N/A   Mostly Cloudy
9:53 AM 52.0 °F - 41.0 °F 66% 29.96 in 10.0 mi SW 11.5 mph - N/A   Scattered Clouds
10:53 AM 53.1 °F - 39.0 °F 59% 29.97 in 10.0 mi West 6.9 mph - N/A   Clear
11:53 AM 55.0 °F - 37.9 °F 53% 29.96 in 10.0 mi SSW 6.9 mph - N/A   Scattered Clouds
1:53 PM 57.0 °F - 37.0 °F 47% 29.93 in 10.0 mi South 9.2 mph - N/A   Scattered Clouds
2:53 PM 57.0 °F - 37.9 °F 49% 29.93 in 10.0 mi SSW 10.4 mph - N/A   Partly Cloudy
3:53 PM 57.9 °F - 34.0 °F 41% 29.92 in 10.0 mi SSW 5.8 mph - N/A   Scattered Clouds
4:53 PM 57.9 °F - 36.0 °F 44% 29.92 in 10.0 mi Variable 4.6 mph - N/A   Clear
5:53 PM 57.0 °F - 35.1 °F 44% 29.93 in 10.0 mi SW 5.8 mph - N/A   Clear
6:53 PM 55.0 °F - 36.0 °F 49% 29.95 in 10.0 mi SSW 3.5 mph - N/A   Clear
7:53 PM 55.0 °F - 37.9 °F 53% 29.95 in 10.0 mi Calm Calm - N/A   Clear
8:53 PM 53.1 °F - 41.0 °F 64% 29.96 in 10.0 mi Calm Calm - N/A   Clear
9:53 PM 51.1 °F - 43.0 °F 74% 29.96 in 10.0 mi Calm Calm - N/A   Clear
10:53 PM 48.9 °F - 43.0 °F 80% 29.96 in 10.0 mi Calm Calm - N/A   Clear
11:53 PM 50.0 °F - 41.0 °F 71% 29.95 in 10.0 mi NNE 9.2 mph - N/A   Clear